N8YZF Weather Reports


Display with metric or nautical units.
time (UTC)temp
F
wind
direction
speed
MPH
gust
MPH
rain 1hr
in
rain 24hr
in
rain mn
in
humidity
%
barometer
mb
20260502130453 39 333 1.0 4.0 0.00 0.00 0.00 70 1015.2
20260502123440 36 288 0.0 1.0 0.00 0.00 0.00 86 1015.1
20260502122906 36 284 0.0 0.0 0.00 0.00 0.00 87 1015.1
20260502122351 36 286 0.0 0.0 0.00 0.00 0.00 89 1015.1
20260502121905 35 286 0.0 0.0 0.00 0.00 0.00 91 1015.0
20260502121300 34 286 0.0 0.0 0.00 0.00 0.00 91 1014.9
20260502120758 33 286 0.0 0.0 0.00 0.00 0.00 92 1014.9
20260502120257 32 286 0.0 0.0 0.00 0.00 0.00 92 1014.8
20260502115806 32 286 0.0 0.0 0.00 0.00 0.00 94 1014.8
20260502115233 31 286 0.0 0.0 0.00 0.00 0.00 95 1014.7
20260502114702 30 286 0.0 0.0 0.00 0.00 0.00 95 1014.6
20260502114205 29 286 0.0 0.0 0.00 0.00 0.00 94 1014.5
20260502113948 28 286 0.0 0.0 0.00 0.00 0.00 94 1014.4
20260502113158 27 286 0.0 0.0 0.00 0.00 0.00 93 1014.3
20260502112653 27 286 0.0 0.0 0.00 0.00 0.00 93 1014.3
20260502112431 27 286 0.0 0.0 0.00 0.00 0.00 93 1014.3
20260502111849 27 286 0.0 0.0 0.00 0.00 0.00 93 1014.3
20260502111058 27 286 0.0 0.0 0.00 0.00 0.00 93 1014.2
20260502110830 27 286 0.0 0.0 0.00 0.00 0.00 93 1014.2
20260502110353 27 286 0.0 0.0 0.00 0.00 0.00 93 1014.2
20260502105542 26 286 0.0 0.0 0.00 0.00 0.00 93 1014.3
20260502105248 26 286 0.0 0.0 0.00 0.00 0.00 93 1014.3
20260502104450 26 286 0.0 0.0 0.00 0.00 0.00 93 1014.3
20260502104237 26 286 0.0 0.0 0.00 0.00 0.00 93 1014.3
20260502103443 26 286 0.0 0.0 0.00 0.00 0.00 93 1014.3
20260502102939 26 286 0.0 0.0 0.00 0.00 0.00 93 1014.2
20260502102402 26 286 0.0 0.0 0.00 0.00 0.00 93 1014.1
20260502101903 26 286 0.0 0.0 0.00 0.00 0.00 93 1014.1
20260502101357 25 286 0.0 0.0 0.00 0.00 0.00 93 1014.0
20260502100750 25 286 0.0 0.0 0.00 0.00 0.00 93 1014.0
20260502100245 25 286 0.0 0.0 0.00 0.00 0.00 93 1014.0
20260502090958 25 286 0.0 0.0 0.00 0.00 0.00 92 1013.7
20260502090454 25 286 0.0 0.0 0.00 0.00 0.00 91 1013.7
20260502071032 28 286 0.0 0.0 0.00 0.00 0.00 89 1013.9
20260502070521 28 286 0.0 0.0 0.00 0.00 0.00 88 1013.9
20260502070002 28 286 0.0 0.0 0.00 0.00 0.00 88 1013.9
20260502065459 28 286 0.0 0.0 0.00 0.00 0.00 88 1013.9
20260502064958 28 286 0.0 0.0 0.00 0.00 0.00 87 1013.9
20260502064453 28 286 0.0 0.0 0.00 0.00 0.00 87 1013.9
20260502063946 29 286 0.0 0.0 0.00 0.00 0.00 87 1014.0
20260502063728 29 286 0.0 0.0 0.00 0.00 0.00 86 1014.0
20260502062911 29 286 0.0 0.0 0.00 0.00 0.00 86 1014.1
20260502062347 29 286 0.0 0.0 0.00 0.00 0.00 85 1014.1
20260502062044 29 286 0.0 0.0 0.00 0.00 0.00 85 1014.1
20260502061832 30 286 0.0 0.0 0.00 0.00 0.00 84 1014.1
20260502060752 30 286 0.0 0.0 0.00 0.00 0.00 84 1014.1
20260502060248 30 286 0.0 0.0 0.00 0.00 0.00 83 1014.1
20260502055720 31 286 0.0 0.0 0.00 0.00 0.00 83 1014.1
20260502055159 31 286 0.0 0.0 0.00 0.00 0.00 82 1014.1
20260502054654 31 286 0.0 0.0 0.00 0.00 0.00 82 1014.2
20260502054141 32 286 0.0 0.0 0.00 0.00 0.00 81 1014.2
20260502053553 32 286 0.0 0.0 0.00 0.00 0.00 80 1014.2
20260502053336 33 286 0.0 0.0 0.00 0.00 0.00 80 1014.3
20260502052545 33 286 0.0 0.0 0.00 0.00 0.00 80 1014.3
20260502052042 33 286 0.0 0.0 0.00 0.00 0.00 80 1014.3
20260502051506 33 286 0.0 0.0 0.00 0.00 0.00 79 1014.4
20260502050957 33 286 0.0 0.0 0.00 0.00 0.00 79 1014.4
20260502050451 33 286 0.0 0.0 0.00 0.00 0.00 79 1014.4
20260502050026 33 286 0.0 0.0 0.00 0.00 0.00 79 1014.2
20260502045438 33 286 0.0 0.0 0.00 0.00 0.00 79 1014.2
20260502044900 33 286 0.0 0.0 0.00 0.00 0.00 78 1014.2
20260502044354 33 286 0.0 0.0 0.00 0.00 0.00 77 1014.2
20260502043853 34 286 0.0 0.0 0.00 0.00 0.00 77 1014.3
20260502043257 34 286 0.0 0.0 0.00 0.00 0.00 77 1014.3
20260502042747 34 286 0.0 0.0 0.00 0.00 0.00 77 1014.3
20260502042243 34 286 0.0 0.0 0.00 0.00 0.00 77 1014.3
20260502041655 34 286 0.0 0.0 0.00 0.00 0.00 77 1014.3
20260502041144 34 286 0.0 0.0 0.00 0.00 0.00 77 1014.2
20260502040644 34 286 0.0 0.0 0.00 0.00 0.00 76 1014.2
20260502040359 34 286 0.0 0.0 0.00 0.00 0.00 76 1014.2
20260502035546 34 286 0.0 0.0 0.00 0.00 0.00 76 1014.2
20260502034959 34 286 0.0 0.0 0.00 0.00 0.00 76 1014.2
20260502034450 34 286 0.0 0.0 0.00 0.00 0.00 75 1014.1
20260502034140 34 286 0.0 0.0 0.00 0.00 0.00 75 1014.1
20260502033353 34 286 0.0 0.0 0.00 0.00 0.00 74 1014.1
20260502033047 34 286 0.0 0.0 0.00 0.00 0.00 73 1014.1
20260502031808 35 286 0.0 0.0 0.00 0.00 0.00 72 1014.1
20260502031549 35 286 0.0 0.0 0.00 0.00 0.00 72 1014.1
20260502030755 35 286 0.0 0.0 0.00 0.00 0.00 71 1014.1
20260502030234 35 286 0.0 0.0 0.00 0.00 0.00 71 1014.1
20260502025659 35 286 0.0 0.0 0.00 0.00 0.00 70 1014.0
20260502025114 36 286 0.0 0.0 0.00 0.00 0.00 69 1014.0
20260502024607 36 286 0.0 0.0 0.00 0.00 0.00 69 1014.0
20260502024047 36 286 0.0 0.0 0.00 0.00 0.00 68 1014.1
20260502023815 36 286 0.0 0.0 0.00 0.00 0.00 69 1014.1
20260502023228 37 286 0.0 0.0 0.00 0.00 0.00 68 1014.1
20260502022448 37 286 0.0 0.0 0.00 0.00 0.00 68 1014.1
20260502021934 37 286 0.0 0.0 0.00 0.00 0.00 68 1014.1
20260502021356 37 286 0.0 0.0 0.00 0.00 0.00 67 1014.0
20260502020907 37 286 0.0 1.0 0.00 0.00 0.00 67 1014.0
20260502020320 37 313 0.0 2.0 0.00 0.00 0.00 67 1014.0
20260502015527 37 261 0.0 0.0 0.00 0.00 0.00 67 1013.9
20260502014746 37 261 0.0 1.0 0.00 0.00 0.00 67 1013.9
20260502014518 37 261 0.0 1.0 0.00 0.00 0.00 68 1013.9
20260502013712 37 278 0.0 1.0 0.00 0.00 0.00 68 1013.9
20260502013157 37 278 0.0 1.0 0.00 0.00 0.00 68 1013.9
20260502012657 37 273 0.0 0.0 0.00 0.00 0.00 68 1013.9
20260502012141 38 273 0.0 1.0 0.00 0.00 0.00 68 1013.9
20260502011929 38 273 0.0 1.0 0.00 0.00 0.00 68 1013.9
20260502011107 38 273 0.0 0.0 0.00 0.00 0.00 68 1013.7
20260502010601 38 273 0.0 0.0 0.00 0.00 0.00 67 1013.7
20260502010115 38 273 0.0 0.0 0.00 0.00 0.00 67 1013.7
20260502005918 38 273 0.0 3.0 0.00 0.00 0.00 66 1013.4
20260502005914 38 273 0.0 0.0 0.00 0.00 0.00 67 1013.4
20260502004539 38 273 0.0 3.0 0.00 0.00 0.00 66 1013.4
20260502004040 38 261 0.0 2.0 0.00 0.00 0.00 67 1013.7
20260502003443 38 261 0.0 2.0 0.00 0.00 0.00 66 1013.7
20260502002901 39 254 1.0 3.0 0.00 0.00 0.00 66 1013.5
20260502002355 39 64 1.0 5.0 0.00 0.00 0.00 65 1013.5
20260502001853 39 290 1.0 5.0 0.00 0.00 0.00 64 1013.5
20260502001350 39 27 0.0 2.0 0.00 0.00 0.00 63 1013.3
20260502001140 39 34 0.0 1.0 0.00 0.00 0.00 61 1013.3
20260502000343 39 34 0.0 1.0 0.00 0.00 0.00 60 1013.3
20260501235840 39 34 0.0 2.0 0.00 0.00 0.00 59 1013.2
20260501235340 39 34 0.0 2.0 0.00 0.00 0.00 58 1013.2
20260501234820 40 35 0.0 2.0 0.00 0.00 0.00 58 1013.2
20260501234313 40 36 0.0 2.0 0.00 0.00 0.00 57 1013.1
20260501233757 40 36 0.0 2.0 0.00 0.00 0.00 59 1013.2
20260501233249 40 35 1.0 2.0 0.00 0.00 0.00 55 1013.2
20260501232745 40 35 0.0 2.0 0.00 0.00 0.00 57 1013.1
20260501232245 40 347 0.0 2.0 0.00 0.00 0.00 57 1013.1
20260501232031 40 348 0.0 2.0 0.00 0.00 0.00 58 1013.1
20260501231305 40 16 1.0 3.0 0.00 0.00 0.00 59 1013.0
20260501231253 40 15 0.0 3.0 0.00 0.00 0.00 57 1013.0
20260501230206 40 0 1.0 5.0 0.00 0.00 0.00 59 1013.0
20260501225646 40 318 1.0 5.0 0.00 0.00 0.00 58 1013.0
20260501225254 41 0 1.0 5.0 0.00 0.00 0.00 57 1013.0
20260501225229 41 16 1.0 5.0 0.00 0.00 0.00 59 1013.0
20260501224143 41 270 1.0 4.0 0.00 0.00 0.00 55 1013.0
20260501223605 41 351 1.0 4.0 0.00 0.00 0.00 55 1013.0
20260501223058 41 320 0.0 2.0 0.00 0.00 0.00 55 1013.0
20260501222559 41 320 1.0 2.0 0.00 0.00 0.00 54 1012.9
20260501222047 41 242 1.0 2.0 0.00 0.00 0.00 54 1012.9
20260501221543 41 333 1.0 2.0 0.00 0.00 0.00 53 1012.9
20260501221039 41 315 1.0 2.0 0.00 0.00 0.00 53 1012.9
20260501220519 41 316 1.0 5.0 0.00 0.00 0.00 52 1012.9
20260501220135 41 287 1.0 4.0 0.00 0.00 0.00 52 1012.8
20260501220107 41 325 1.0 5.0 0.00 0.00 0.00 52 1012.9
20260501214951 42 325 1.0 4.0 0.00 0.00 0.00 55 1012.8
20260501214448 42 310 1.0 4.0 0.00 0.00 0.00 54 1012.6
20260501213946 42 355 1.0 4.0 0.00 0.00 0.00 55 1012.6
20260501213445 42 338 1.0 4.0 0.00 0.00 0.00 56 1012.7
20260501213244 42 340 1.0 4.0 0.00 0.00 0.00 55 1012.5
20260501212529 42 328 1.0 2.0 0.00 0.00 0.00 56 1012.5
20260501212242 43 355 0.0 2.0 0.00 0.00 0.00 55 1012.5
20260501210857 43 330 1.0 3.0 0.00 0.00 0.00 55 1012.5
20260501210356 43 275 0.0 2.0 0.00 0.00 0.00 53 1012.5
20260501210153 43 303 1.0 2.0 0.00 0.00 0.00 56 1012.4
20260501205354 43 13 1.0 6.0 0.00 0.00 0.00 56 1012.4
20260501205150 44 9 1.0 6.0 0.00 0.00 0.00 55 1012.4
20260501204354 44 350 0.0 5.0 0.00 0.00 0.00 53 1012.4
20260501203850 43 340 1.0 7.0 0.00 0.00 0.00 50 1012.4
20260501203343 43 324 1.0 7.0 0.00 0.00 0.00 51 1012.4
20260501202817 44 296 1.0 5.0 0.00 0.00 0.00 50 1012.3
20260501202306 44 281 1.0 6.0 0.00 0.00 0.00 50 1012.3
20260501201746 44 310 2.0 6.0 0.00 0.00 0.00 50 1012.3
20260501201242 44 276 1.0 4.0 0.00 0.00 0.00 50 1012.2
20260501200744 44 328 1.0 4.0 0.00 0.00 0.00 52 1012.2
20260501200540 44 350 1.0 5.0 0.00 0.00 0.00 52 1012.2
20260501195739 44 296 1.0 5.0 0.00 0.00 0.00 50 1012.1
20260501195219 44 281 1.0 5.0 0.00 0.00 0.00 51 1012.1
20260501194700 44 251 1.0 5.0 0.00 0.00 0.00 51 1012.1
20260501194301 44 309 2.0 8.0 0.00 0.00 0.00 51 1012.1
20260501194237 44 350 2.0 8.0 0.00 0.00 0.00 51 1012.1
20260501193459 44 286 1.0 4.0 0.00 0.00 0.00 52 1012.1
20260501192930 44 297 2.0 5.0 0.00 0.00 0.00 52 1012.1
20260501192114 44 337 2.0 7.0 0.00 0.00 0.00 51 1012.1
20260501191608 45 284 1.0 7.0 0.00 0.00 0.00 50 1012.2
20260501191109 45 239 1.0 5.0 0.00 0.00 0.00 50 1012.2
20260501190600 45 59 1.0 5.0 0.00 0.00 0.00 47 1012.2
20260501185557 46 331 1.0 5.0 0.00 0.00 0.00 49 1012.1
20260501185057 46 355 1.0 5.0 0.00 0.00 0.00 47 1012.2
20260501184935 46 348 2.0 5.0 0.00 0.00 0.00 49 1012.1
20260501184931 46 65 1.0 5.0 0.00 0.00 0.00 47 1012.2
20260501183538 46 288 2.0 6.0 0.00 0.00 0.00 47 1012.1
20260501183006 46 60 1.0 6.0 0.00 0.00 0.00 45 1012.2
20260501182507 46 0 1.0 4.0 0.00 0.00 0.00 48 1012.2
20260501182004 46 343 1.0 5.0 0.00 0.00 0.00 48 1012.2
20260501181503 46 276 1.0 5.0 0.00 0.00 0.00 50 1012.3
20260501181317 46 49 1.0 4.0 0.00 0.00 0.00 48 1012.3
20260501180502 46 190 1.0 4.0 0.00 0.00 0.00 47 1012.3
20260501180002 46 348 1.0 4.0 0.00 0.00 0.00 47 1012.3
20260501175502 46 302 1.0 4.0 0.00 0.00 0.00 49 1012.3
20260501175001 46 34 2.0 9.0 0.00 0.00 0.00 49 1012.3
20260501174459 46 355 2.0 9.0 0.00 0.00 0.00 46 1012.3
20260501173954 46 346 1.0 4.0 0.00 0.00 0.00 50 1012.3
20260501173453 46 338 1.0 5.0 0.00 0.00 0.00 52 1012.3
20260501173252 45 320 1.0 5.0 0.00 0.00 0.00 49 1012.2
20260501172708 45 331 1.0 5.0 0.00 0.00 0.00 49 1012.2
20260501171943 45 265 1.0 4.0 0.00 0.00 0.00 50 1012.2
20260501171443 44 286 2.0 5.0 0.00 0.00 0.00 52 1012.2
20260501170918 44 310 3.0 6.0 0.00 0.00 0.00 52 1012.2
20260501170406 45 292 2.0 6.0 0.00 0.00 0.00 50 1012.2
20260501165841 45 298 2.0 5.0 0.00 0.00 0.00 50 1012.3
20260501165314 45 340 2.0 8.0 0.00 0.00 0.00 49 1012.3
20260501165116 45 76 1.0 4.0 0.00 0.00 0.00 53 1012.3
20260501164314 45 27 1.0 5.0 0.00 0.00 0.00 50 1012.6
20260501164121 45 347 1.0 5.0 0.00 0.00 0.00 49 1012.6
20260501163302 45 313 1.0 4.0 0.00 0.00 0.00 52 1012.6
20260501162805 44 355 1.0 4.0 0.00 0.00 0.00 53 1012.5
20260501162348 44 340 2.0 6.0 0.00 0.00 0.00 56 1012.5
20260501161257 44 18 1.0 5.0 0.00 0.00 0.00 52 1012.5
20260501161050 44 302 1.0 5.0 0.00 0.00 0.00 54 1012.5
20260501160249 44 5 1.0 5.0 0.00 0.00 0.00 54 1012.5
20260501155752 43 351 1.0 4.0 0.00 0.00 0.00 57 1012.5
20260501155554 43 33 1.0 4.0 0.00 0.00 0.00 57 1012.4
20260501154749 43 289 1.0 4.0 0.00 0.00 0.00 56 1012.4
20260501154208 43 316 1.0 4.0 0.00 0.00 0.00 59 1012.4
20260501153706 42 305 1.0 4.0 0.00 0.00 0.00 60 1012.4
20260501153206 42 348 1.0 4.0 0.00 0.00 0.00 62 1012.4
20260501152704 42 350 1.0 4.0 0.00 0.00 0.00 63 1012.3
20260501152203 42 261 1.0 4.0 0.00 0.00 0.00 62 1012.3
20260501151659 41 54 2.0 4.0 0.00 0.00 0.00 65 1012.3
20260501151158 41 336 1.0 4.0 0.00 0.00 0.00 66 1012.3
20260501150655 41 329 1.0 4.0 0.00 0.00 0.00 67 1012.3
20260501150450 41 349 1.0 4.0 0.00 0.00 0.00 67 1012.3
20260501145650 40 349 1.0 4.0 0.00 0.00 0.00 69 1012.3
20260501145450 40 21 1.0 4.0 0.00 0.00 0.00 70 1012.2